Total_Precipitation_Accumulation
0.13 0.33 0.50 0.42 0.34 0.29 0.24 0.21 0.16 0.11 0.11 0.09 0.09 0.11 0.12 0.14 0.15 0.14 0.12 0.12 0.11 0.09 0.09 0.08 0.09 0.13 0.20 0.28 0.37 0.54 0.87 1.29 1.46 1.36 1.35 1.44 1.54 1.52 1.41 1.36 1.32 1.33 1.30 1.26
0.08 0.18 0.18 0.14 0.16 0.20 0.23 0.25 0.22 0.15 0.11 0.09 0.07 0.07 0.08 0.09 0.11 0.12 0.12 0.13 0.13 0.10 0.08 0.06 0.07 0.11 0.17 0.32 0.46 0.59 0.84 1.27 1.47 1.58 1.69 1.90 2.10 2.01 1.86 1.81 1.75 1.79 1.74 1.85
0.04 0.05 0.05 0.09 0.16 0.24 0.27 0.29 0.25 0.20 0.12 0.09 0.07 0.05 0.05 0.07 0.07 0.08 0.11 0.13 0.14 0.12 0.11 0.10 0.10 0.13 0.17 0.27 0.38 0.52 0.69 0.97 1.29 1.56 1.83 2.14 2.37 2.34 2.21 2.04 2.01 2.04 2.05 2.13
0.02 0.02 0.04 0.07 0.10 0.14 0.21 0.15 0.11 0.09 0.09 0.09 0.07 0.09 0.06 0.09 0.11 0.12 0.12 0.13 0.15 0.15 0.14 0.16 0.15 0.15 0.17 0.23 0.29 0.41 0.59 0.84 1.08 1.33 1.73 2.17 2.47 2.57 2.48 2.34 2.25 2.21 2.20 2.20
0.00 0.01 0.02 0.04 0.06 0.09 0.10 0.06 0.06 0.07 0.08 0.07 0.06 0.08 0.08 0.11 0.15 0.15 0.15 0.15 0.16 0.15 0.17 0.20 0.19 0.21 0.22 0.21 0.25 0.36 0.52 0.75 0.99 1.22 1.56 1.97 2.22 2.42 2.57 2.38 2.22 2.23 2.20 2.15
0.00 0.00 0.00 0.01 0.02 0.04 0.05 0.06 0.05 0.05 0.07 0.07 0.05 0.10 0.17 0.17 0.16 0.15 0.14 0.15 0.17 0.19 0.24 0.27 0.34 0.38 0.37 0.31 0.35 0.44 0.52 0.65 0.82 0.96 1.18 1.42 1.72 1.95 2.30 2.27 2.17 2.25 2.17 1.96
0.00 0.00 0.00 0.00 0.01 0.02 0.03 0.08 0.12 0.12 0.13 0.10 0.07 0.17 0.29 0.25 0.19 0.18 0.18 0.18 0.20 0.22 0.25 0.33 0.46 0.49 0.50 0.45 0.42 0.44 0.54 0.59 0.64 0.74 0.85 0.99 1.20 1.36 1.70 2.00 1.99 1.88 1.86 1.76
0.00 0.00 0.00 0.00 0.01 0.04 0.04 0.09 0.17 0.19 0.19 0.18 0.19 0.34 0.42 0.31 0.23 0.20 0.19 0.20 0.23 0.27 0.34 0.49 0.65 0.67 0.66 0.59 0.52 0.51 0.59 0.61 0.62 0.66 0.67 0.73 0.81 0.92 1.05 1.23 1.36 1.37 1.36 1.45
0.01 0.01 0.00 0.00 0.01 0.03 0.07 0.10 0.13 0.20 0.18 0.20 0.29 0.45 0.42 0.27 0.25 0.27 0.27 0.28 0.37 0.46 0.54 0.67 0.81 0.83 0.75 0.69 0.61 0.59 0.63 0.70 0.69 0.68 0.68 0.72 0.76 0.78 0.86 0.87 0.97 1.12 1.11 1.09
0.04 0.02 0.01 0.01 0.02 0.03 0.06 0.10 0.17 0.28 0.33 0.30 0.33 0.45 0.47 0.37 0.37 0.37 0.41 0.44 0.54 0.66 0.74 0.82 0.95 0.96 0.82 0.71 0.61 0.58 0.60 0.71 0.88 0.99 0.93 0.84 0.89 0.96 1.16 1.16 0.96 0.93 1.02 1.02
0.17 0.13 0.04 0.04 0.06 0.10 0.14 0.21 0.27 0.35 0.38 0.48 0.58 0.63 0.58 0.57 0.57 0.59 0.62 0.65 0.73 0.86 0.86 0.84 0.91 0.98 0.87 0.68 0.60 0.55 0.55 0.66 0.79 0.82 0.87 0.84 0.85 0.93 1.18 1.37 1.27 1.05 0.98 0.97
0.22 0.28 0.15 0.09 0.13 0.17 0.23 0.34 0.50 0.69 0.66 0.62 0.75 0.79 0.64 0.58 0.62 0.64 0.64 0.63 0.67 0.79 0.80 0.81 0.83 0.80 0.70 0.56 0.49 0.46 0.47 0.56 0.65 0.63 0.70 0.75 0.74 0.82 0.93 0.99 0.97 0.86 0.74 0.70
0.33 0.46 0.38 0.26 0.32 0.32 0.41 0.45 0.51 0.63 0.71 0.72 0.80 0.83 0.61 0.53 0.49 0.52 0.55 0.58 0.60 0.60 0.60 0.59 0.60 0.57 0.54 0.53 0.50 0.45 0.45 0.52 0.57 0.58 0.64 0.71 0.71 0.71 0.70 0.67 0.59 0.60 0.60 0.59
0.33 0.42 0.47 0.47 0.53 0.59 0.59 0.50 0.45 0.60 0.78 0.73 0.74 0.73 0.60 0.53 0.49 0.52 0.53 0.54 0.57 0.50 0.44 0.43 0.46 0.46 0.48 0.49 0.49 0.45 0.43 0.50 0.58 0.72 0.79 0.82 0.82 0.78 0.74 0.70 0.62 0.60 0.61 0.63
0.22 0.25 0.26 0.25 0.27 0.39 0.44 0.38 0.38 0.45 0.51 0.66 0.65 0.64 0.52 0.49 0.53 0.56 0.54 0.49 0.45 0.39 0.34 0.35 0.35 0.38 0.37 0.38 0.40 0.40 0.38 0.43 0.51 0.64 0.75 0.80 0.81 0.80 0.75 0.67 0.61 0.61 0.57 0.54
0.15 0.19 0.18 0.16 0.18 0.25 0.32 0.34 0.35 0.35 0.40 0.50 0.57 0.55 0.43 0.39 0.38 0.38 0.36 0.31 0.29 0.29 0.26 0.24 0.25 0.26 0.25 0.24 0.24 0.26 0.32 0.41 0.47 0.54 0.63 0.78 0.83 0.75 0.70 0.61 0.57 0.58 0.54 0.50
0.13 0.23 0.30 0.25 0.21 0.23 0.48 0.51 0.51 0.52 0.46 0.45 0.40 0.32 0.21 0.20 0.23 0.26 0.26 0.26 0.29 0.25 0.20 0.18 0.19 0.20 0.21 0.22 0.25 0.28 0.34 0.43 0.44 0.48 0.59 0.78 0.78 0.67 0.62 0.66 0.67 0.61 0.58 0.58
0.10 0.22 0.32 0.27 0.29 0.57 0.82 0.61 0.58 0.52 0.31 0.17 0.13 0.12 0.12 0.17 0.17 0.15 0.16 0.19 0.22 0.19 0.15 0.13 0.13 0.13 0.14 0.17 0.21 0.24 0.28 0.31 0.35 0.40 0.49 0.63 0.65 0.63 0.66 0.66 0.63 0.56 0.52 0.51
0.12 0.23 0.33 0.29 0.33 0.60 0.64 0.41 0.33 0.33 0.21 0.07 0.06 0.08 0.10 0.12 0.11 0.09 0.09 0.10 0.11 0.11 0.07 0.06 0.06 0.05 0.05 0.06 0.07 0.10 0.13 0.16 0.20 0.27 0.35 0.44 0.47 0.51 0.54 0.54 0.54 0.50 0.44 0.44
0.25 0.30 0.43 0.44 0.54 0.58 0.31 0.16 0.15 0.22 0.26 0.06 0.03 0.04 0.04 0.06 0.09 0.06 0.04 0.05 0.05 0.05 0.04 0.03 0.02 0.01 0.01 0.01 0.01 0.03 0.06 0.09 0.13 0.19 0.25 0.33 0.36 0.40 0.42 0.47 0.50 0.49 0.45 0.41
0.22 0.30 0.38 0.46 0.65 0.54 0.21 0.11 0.11 0.21 0.27 0.08 0.03 0.02 0.02 0.02 0.04 0.02 0.03 0.04 0.04 0.03 0.03 0.01 0.01 0.00 0.00 0.01 0.01 0.02 0.05 0.07 0.08 0.11 0.15 0.22 0.30 0.37 0.45 0.50 0.51 0.53 0.49 0.44
0.24 0.26 0.28 0.38 0.54 0.49 0.20 0.15 0.18 0.17 0.08 0.03 0.02 0.01 0.01 0.01 0.01 0.01 0.02 0.02 0.03 0.03 0.02 0.01 0.01 0.00 0.00 0.01 0.01 0.01 0.02 0.03 0.04 0.06 0.11 0.18 0.26 0.33 0.41 0.50 0.52 0.52 0.52 0.51
0.27 0.30 0.32 0.43 0.57 0.38 0.23 0.20 0.19 0.12 0.06 0.02 0.01 0.01 0.00 0.00 0.00 0.00 0.01 0.02 0.02 0.03 0.02 0.01 0.01 0.01 0.00 0.01 0.01 0.00 0.00 0.00 0.01 0.02 0.06 0.11 0.15 0.19 0.24 0.32 0.39 0.45 0.49 0.51
0.15 0.17 0.23 0.32 0.32 0.20 0.18 0.16 0.12 0.07 0.04 0.02 0.01 0.00 0.00 0.00 0.00 0.00 0.01 0.01 0.02 0.02 0.01 0.01 0.01 0.01 0.01 0.00 0.00 0.00 0.00 0.00 0.00 0.01 0.03 0.05 0.06 0.07 0.10 0.19 0.27 0.34 0.41 0.46
0.10 0.13 0.18 0.25 0.25 0.15 0.10 0.10 0.07 0.04 0.02 0.01 0.01 0.00 0.00 0.00 0.00 0.00 0.00 0.00 0.01 0.01 0.01 0.01 0.01 0.01 0.00 0.00 0.00 0.00 0.01 0.01 0.01 0.01 0.01 0.02 0.04 0.05 0.08 0.14 0.22 0.27 0.34 0.36
0.07 0.11 0.17 0.24 0.23 0.17 0.08 0.07 0.05 0.03 0.02 0.01 0.01 0.00 0.00 0.00 0.00 0.00 0.00 0.00 0.01 0.01 0.01 0.01 0.01 0.01 0.00 0.00 0.00 0.01 0.03 0.02 0.04 0.06 0.03 0.02 0.03 0.06 0.08 0.11 0.13 0.12 0.16 0.16